| time (UTC) | temp F | wind direction | speed knots | gust knots | rain 1hr in | rain 24hr in | rain mn in | humidity % | barometer mb |
| 20260502195723 | 60 | 321 | 2.6 | 5.2 | 0.06 | 0.11 | 0.17 | 91 | 1013.8 |
| 20260502194721 | 60 | 59 | 1.7 | 5.2 | 0.06 | 0.11 | 0.17 | 91 | 1013.9 |
| 20260502193722 | 60 | 78 | 3.5 | 6.1 | 0.06 | 0.11 | 0.16 | 90 | 1014.1 |
| 20260502193200 | 61 | 123 | 2.6 | 5.2 | 0.06 | 0.11 | 0.15 | 90 | 1014.2 |
| 20260502191720 | 61 | 141 | 1.7 | 4.3 | 0.06 | 0.11 | 0.14 | 89 | 1014.2 |
| 20260502191655 | 61 | 138 | 3.5 | 10.4 | 0.04 | 0.11 | 0.13 | 88 | 1014.0 |
| 20260502185721 | 61 | 220 | 5.2 | 9.6 | 0.02 | 0.09 | 0.11 | 88 | 1014.1 |
| 20260502184720 | 61 | 178 | 2.6 | 8.7 | 0.02 | 0.09 | 0.10 | 86 | 1014.3 |
| 20260502183719 | 61 | 207 | 6.1 | 10.4 | 0.02 | 0.09 | 0.10 | 85 | 1014.5 |
| 20260502182719 | 62 | 206 | 6.1 | 12.2 | 0.02 | 0.09 | 0.09 | 82 | 1014.6 |
| 20260502181719 | 62 | 193 | 6.1 | 12.2 | 0.03 | 0.09 | 0.09 | 80 | 1014.3 |
| 20260502181157 | 63 | 192 | 7.0 | 13.0 | 0.07 | 0.09 | 0.09 | 77 | 1014.2 |
| 20260502170201 | 72 | 147 | 1.7 | 4.3 | 0.01 | 0.00 | 0.01 | 68 | 1013.6 |
| 20260502163718 | 74 | 162 | 3.5 | 12.2 | 0.00 | 0.00 | 0.00 | 61 | 1013.8 |
| 20260502163152 | 75 | 113 | 4.3 | 8.7 | 0.00 | 0.00 | 0.00 | 59 | 1014.0 |
| 20260502162155 | 76 | 24 | 0.9 | 4.3 | 0.00 | 0.00 | 0.00 | 54 | 1014.0 |
| 20260502160719 | 77 | 309 | 2.6 | 3.5 | 0.00 | 0.00 | 0.00 | 52 | 1013.9 |
| 20260502160634 | 77 | 274 | 3.5 | 5.2 | 0.00 | 0.00 | 0.00 | 53 | 1014.2 |
| 20260502151714 | 77 | 233 | 2.6 | 7.8 | 0.00 | 0.00 | 0.00 | 52 | 1014.7 |
| 20260502151155 | 78 | 221 | 4.3 | 8.7 | 0.00 | 0.00 | 0.00 | 51 | 1014.8 |
| 20260502150148 | 78 | 255 | 3.5 | 7.8 | 0.00 | 0.00 | 0.00 | 52 | 1015.0 |
| 20260502123711 | 77 | 250 | 6.1 | 13.0 | 0.00 | 0.00 | 0.00 | 52 | 1016.6 |
| 20260502122712 | 78 | 171 | 7.0 | 10.4 | 0.00 | 0.00 | 0.00 | 52 | 1016.8 |
| 20260502122148 | 77 | 240 | 4.3 | 13.9 | 0.00 | 0.00 | 0.00 | 53 | 1017.1 |
| 20260502120711 | 77 | 233 | 6.1 | 13.0 | 0.00 | 0.00 | 0.00 | 52 | 1017.1 |
| 20260502120145 | 78 | 183 | 4.3 | 12.2 | 0.00 | 0.00 | 0.00 | 53 | 1017.1 |
| 20260502114709 | 77 | 234 | 7.0 | 12.2 | 0.00 | 0.00 | 0.00 | 54 | 1017.1 |
| 20260502114155 | 77 | 237 | 4.3 | 9.6 | 0.00 | 0.00 | 0.00 | 54 | 1017.3 |
| 20260502112712 | 77 | 244 | 5.2 | 11.3 | 0.00 | 0.00 | 0.00 | 53 | 1017.5 |
| 20260502111709 | 76 | 276 | 5.2 | 11.3 | 0.00 | 0.00 | 0.00 | 54 | 1017.5 |
| 20260502110710 | 76 | 245 | 4.3 | 11.3 | 0.00 | 0.00 | 0.00 | 56 | 1017.6 |
| 20260502110151 | 75 | 186 | 4.3 | 11.3 | 0.00 | 0.00 | 0.00 | 55 | 1017.7 |
| 20260502104708 | 74 | 179 | 3.5 | 13.9 | 0.00 | 0.00 | 0.00 | 54 | 1017.8 |
| 20260502103710 | 74 | 203 | 4.3 | 10.4 | 0.00 | 0.00 | 0.00 | 57 | 1018.0 |
| 20260502103142 | 75 | 250 | 4.3 | 11.3 | 0.00 | 0.00 | 0.00 | 57 | 1018.1 |
| 20260502101708 | 74 | 238 | 3.5 | 10.4 | 0.00 | 0.00 | 0.00 | 57 | 1018.1 |
| 20260502100707 | 73 | 228 | 6.1 | 9.6 | 0.00 | 0.00 | 0.00 | 58 | 1018.3 |
| 20260502090709 | 69 | 237 | 3.5 | 6.1 | 0.00 | 0.00 | 0.00 | 61 | 1018.6 |
| 20260502070704 | 62 | 223 | 4.3 | 6.1 | 0.00 | 0.00 | 0.00 | 61 | 1019.0 |
| 20260502065706 | 60 | 135 | 2.6 | 4.3 | 0.00 | 0.00 | 0.00 | 63 | 1019.1 |
| 20260502064706 | 58 | 149 | 0.9 | 2.6 | 0.00 | 0.00 | 0.00 | 62 | 1019.1 |
| 20260502063704 | 57 | 161 | 0.9 | 1.7 | 0.00 | 0.00 | 0.00 | 64 | 1019.1 |
| 20260502062704 | 56 | 140 | 1.7 | 2.6 | 0.00 | 0.00 | 0.00 | 65 | 1019.0 |
| 20260502062629 | 56 | 140 | 0.9 | 2.6 | 0.00 | 0.00 | 0.00 | 65 | 1019.0 |
| 20260502061621 | 55 | 141 | 0.9 | 2.6 | 0.00 | 0.00 | 0.00 | 66 | 1019.0 |
| 20260502060620 | 55 | 148 | 0.9 | 4.3 | 0.00 | 0.00 | 0.00 | 66 | 1019.0 |
| 20260502054702 | 55 | 138 | 2.6 | 5.2 | 0.00 | 0.00 | 0.00 | 65 | 1019.0 |
| 20260502053705 | 55 | 155 | 1.7 | 3.5 | 0.00 | 0.00 | 0.00 | 67 | 1019.0 |
| 20260502052703 | 54 | 145 | 0.0 | 2.6 | 0.00 | 0.00 | 0.00 | 67 | 1018.9 |
| 20260502051702 | 54 | 144 | 1.7 | 3.5 | 0.00 | 0.00 | 0.00 | 66 | 1018.7 |
| 20260502050701 | 52 | 125 | 1.7 | 3.5 | 0.00 | 0.00 | 0.00 | 68 | 1018.7 |
| 20260502045700 | 51 | 131 | 1.7 | 4.3 | 0.00 | 0.00 | 0.00 | 69 | 1018.9 |
| 20260502044700 | 51 | 144 | 3.5 | 4.3 | 0.00 | 0.00 | 0.00 | 69 | 1018.8 |
| 20260502044137 | 51 | 147 | 3.5 | 5.2 | 0.00 | 0.00 | 0.00 | 68 | 1018.8 |
| 20260502042700 | 51 | 131 | 3.5 | 4.3 | 0.00 | 0.00 | 0.00 | 68 | 1018.9 |
| 20260502041659 | 51 | 158 | 2.6 | 4.3 | 0.00 | 0.00 | 0.00 | 68 | 1018.9 |
| 20260502040700 | 51 | 162 | 2.6 | 5.2 | 0.00 | 0.00 | 0.00 | 68 | 1019.0 |
| 20260502035701 | 50 | 142 | 4.3 | 5.2 | 0.00 | 0.00 | 0.00 | 70 | 1019.1 |
| 20260502034704 | 49 | 140 | 2.6 | 3.5 | 0.00 | 0.00 | 0.00 | 72 | 1019.0 |
| 20260502033700 | 49 | 141 | 0.9 | 2.6 | 0.00 | 0.00 | 0.00 | 71 | 1019.2 |
| 20260502032659 | 49 | 142 | 1.7 | 3.5 | 0.00 | 0.00 | 0.00 | 71 | 1019.1 |
| 20260502031701 | 49 | 142 | 0.9 | 3.5 | 0.00 | 0.00 | 0.00 | 72 | 1019.2 |
| 20260502030659 | 48 | 148 | 1.7 | 3.5 | 0.00 | 0.00 | 0.00 | 72 | 1019.1 |
| 20260502025659 | 48 | 140 | 1.7 | 2.6 | 0.00 | 0.00 | 0.00 | 73 | 1019.2 |
| 20260502025135 | 48 | 138 | 1.7 | 2.6 | 0.00 | 0.00 | 0.00 | 73 | 1019.3 |
| 20260502023658 | 48 | 114 | 0.9 | 1.7 | 0.00 | 0.00 | 0.00 | 74 | 1019.4 |
| 20260502023137 | 48 | 114 | 0.0 | 1.7 | 0.00 | 0.00 | 0.00 | 74 | 1019.4 |
| 20260502021659 | 48 | 114 | 0.0 | 1.7 | 0.00 | 0.00 | 0.00 | 74 | 1019.5 |
| 20260502020658 | 48 | 113 | 0.0 | 2.6 | 0.00 | 0.00 | 0.00 | 74 | 1019.6 |
| 20260502020131 | 48 | 114 | 0.0 | 2.6 | 0.00 | 0.00 | 0.00 | 74 | 1019.6 |
| 20260502015133 | 48 | 114 | 0.0 | 1.7 | 0.00 | 0.00 | 0.00 | 73 | 1019.8 |
| 20260502013658 | 48 | 114 | 0.0 | 2.6 | 0.00 | 0.00 | 0.00 | 73 | 1019.8 |
| 20260502012657 | 48 | 0 | 0.9 | 1.7 | 0.00 | 0.00 | 0.00 | 73 | 1019.8 |
| 20260502012147 | 49 | 0 | 0.9 | 2.6 | 0.00 | 0.00 | 0.00 | 72 | 1019.8 |
| 20260502010658 | 49 | 114 | 0.0 | 0.0 | 0.00 | 0.00 | 0.00 | 73 | 1019.8 |
| 20260502005657 | 49 | 114 | 0.0 | 0.0 | 0.00 | 0.00 | 0.00 | 73 | 1020.0 |
| 20260502004656 | 49 | 114 | 0.0 | 0.0 | 0.00 | 0.00 | 0.00 | 71 | 1020.1 |
| 20260502003656 | 49 | 114 | 0.0 | 0.0 | 0.00 | 0.00 | 0.00 | 72 | 1020.1 |
| 20260502002655 | 50 | 114 | 0.0 | 0.0 | 0.00 | 0.00 | 0.00 | 71 | 1020.2 |
| 20260502001655 | 50 | 114 | 0.0 | 0.0 | 0.00 | 0.00 | 0.00 | 70 | 1020.3 |
| 20260502000655 | 50 | 114 | 0.0 | 0.9 | 0.00 | 0.00 | 0.00 | 70 | 1020.3 |
| 20260502000143 | 50 | 114 | 0.9 | 1.7 | 0.00 | 0.00 | 0.00 | 70 | 1020.4 |
| 20260501234655 | 51 | 114 | 0.0 | 0.0 | 0.00 | 0.00 | 0.00 | 70 | 1020.6 |
| 20260501233655 | 51 | 114 | 0.0 | 0.0 | 0.00 | 0.00 | 0.00 | 69 | 1020.6 |
| 20260501232659 | 51 | 114 | 0.0 | 0.9 | 0.00 | 0.00 | 0.00 | 68 | 1020.7 |
| 20260501231656 | 52 | 114 | 0.0 | 0.9 | 0.00 | 0.00 | 0.00 | 68 | 1020.8 |
| 20260501230653 | 52 | 114 | 0.0 | 1.7 | 0.00 | 0.00 | 0.00 | 68 | 1020.9 |
| 20260501225654 | 53 | 114 | 0.0 | 0.9 | 0.00 | 0.00 | 0.00 | 67 | 1020.9 |
| 20260501224654 | 53 | 114 | 0.0 | 0.9 | 0.00 | 0.00 | 0.00 | 67 | 1021.0 |
| 20260501224132 | 53 | 114 | 0.0 | 0.9 | 0.00 | 0.00 | 0.00 | 66 | 1021.0 |
| 20260501222653 | 54 | 114 | 0.9 | 1.7 | 0.00 | 0.00 | 0.00 | 66 | 1020.9 |
| 20260501221652 | 54 | 114 | 0.9 | 1.7 | 0.00 | 0.00 | 0.00 | 65 | 1020.9 |
| 20260501220653 | 55 | 114 | 0.9 | 1.7 | 0.00 | 0.00 | 0.00 | 63 | 1020.9 |
| 20260501215654 | 56 | 114 | 0.9 | 2.6 | 0.00 | 0.00 | 0.00 | 64 | 1021.0 |
| 20260501215130 | 57 | 114 | 1.7 | 3.5 | 0.00 | 0.00 | 0.00 | 61 | 1020.9 |
| 20260501213652 | 57 | 124 | 2.6 | 3.5 | 0.00 | 0.00 | 0.00 | 59 | 1021.0 |
| 20260501212651 | 58 | 147 | 1.7 | 2.6 | 0.00 | 0.00 | 0.00 | 58 | 1021.0 |
| 20260501211651 | 59 | 147 | 1.7 | 3.5 | 0.00 | 0.00 | 0.00 | 57 | 1021.1 |
| 20260501210652 | 59 | 155 | 2.6 | 4.3 | 0.00 | 0.00 | 0.00 | 58 | 1021.1 |
| 20260501205652 | 60 | 148 | 2.6 | 4.3 | 0.00 | 0.00 | 0.00 | 53 | 1021.1 |
| 20260501204652 | 60 | 147 | 1.7 | 3.5 | 0.00 | 0.00 | 0.00 | 53 | 1021.0 |
| 20260501204128 | 60 | 185 | 1.7 | 3.5 | 0.00 | 0.00 | 0.00 | 53 | 1021.1 |
| 20260501202652 | 61 | 168 | 0.9 | 2.6 | 0.00 | 0.00 | 0.00 | 51 | 1021.1 |
| 20260501201652 | 62 | 159 | 1.7 | 3.5 | 0.00 | 0.00 | 0.00 | 49 | 1021.1 |
| 20260501200649 | 64 | 137 | 2.6 | 4.3 | 0.00 | 0.00 | 0.00 | 46 | 1020.9 |